Regional Weather Roundup
Issued by NWS Sterling, VA

Home | Current Version | Previous Version | Text Only | Print | Product List | Glossary Off
Versions: 1 2 3 4 5 6 7 8 9 10 11 12 13 14 15 16 17 18 19 20 21 22 23 24 25 26 27 28 29 30 31 32 33 34 35 36 37 38 39 40 41 42 43 44 45 46 47 48 49 50

000
ASUS41 KLWX 261610
RWRLWX

REGIONAL WEATHER ROUNDUP
NATIONAL WEATHER SERVICE BALTIMORE MD/WASHINGTON DC
1200 PM EDT THU MAR 26 2015

Note: "FAIR" indicates few or no clouds below 12,000 feet
with no significant weather and/or obstructions to visibility.
 TC=TEMPERATURE CELSIUS

 * =Non NWS site. Station does not report precipitation (e.g. rain,
    snow, etc.), thunder, or fog.

DCZ001-MDZ009-015-VAZ040>042-051-053>054-261700-
WASHINGTON METRO

CITY           SKY/WX    TMP DP  RH WIND       PRES   REMARKS
WASHINGTON NAT CLOUDY    55  51  86 S9        29.86F FOG
DULLES         CLOUDY    59  54  83 S15G22    29.82F
ANDREWS AFB    DRIZZLE   55  55 100 SW8       29.84F FOG
FT BELVOIR     CLOUDY    54  53  94 VRB5      29.85F
QUANTICO       LGT RAIN  52  50  93 S8        29.87F FOG
COLLEGE PARK*  CLOUDY    55  54  94 S6        29.84F
LEESBURG*      CLOUDY    59  59 100 S16       29.81F
MANASSAS*      CLOUDY    57  57 100 S9        29.84F
GAITHERSBURG*  CLOUDY    57  54  88 S7        29.86F

$$

MDZ006>007-011-014-261700-
BALTIMORE METRO

CITY           SKY/WX    TMP DP  RH WIND       PRES   REMARKS
BWI AIRPORT    LGT RAIN  55  54  94 CALM      29.84F FOG
MD SCIENCE CTR   N/A     53  51  93 MISG      29.86F
MARTIN STATE   RAIN      48  48 100 SE6       29.86F
ANNAPOLIS      CLOUDY    47  45  93 S3        29.85F FOG

$$

MDZ012-015-019>023-261700-
MARYLAND EASTERN SHORE

CITY           SKY/WX    TMP DP  RH WIND       PRES   REMARKS
OCEAN CITY     PTSUNNY   55  51  86 SW14G24   29.92F
SALISBURY      PTSUNNY  N/A N/A N/A S16G30    29.89F
BAY BRIDGE AP*   N/A     54  54 100 S9        29.85F FOG
CAMBRIDGE*     CLOUDY    64  57  77 S14G23    29.86F
EASTON*        CLOUDY    66  66 100 SW20G28   29.89F

$$

MDZ017>025-261700-
SOUTHERN MARYLAND

CITY           SKY/WX    TMP DP  RH WIND       PRES   REMARKS
PATUXENT RIVER PTSUNNY   68  60  75 S17G24    29.87F
ST INIGOES     PTSUNNY   65  57  75 S8G20     29.86F
LEONARDTOWN*   CLOUDY    64  59  82 S10G20    29.88S

$$

MDZ003>005-261700-
NORTH CENTRAL MARYLAND

CITY           SKY/WX    TMP DP  RH WIND       PRES   REMARKS
FREDERICK*     PTSUNNY   63  54  72 S9        29.92R
HAGERSTOWN APT PTSUNNY   57  45  64 W5        29.77F
WESTMINSTER*   MOSUNNY   61  55  82 S15G21    29.79F

$$

MDZ501>502-261700-
WESTERN MARYLAND

CITY           SKY/WX    TMP DP  RH WIND       PRES   REMARKS
OAKLAND*       PTSUNNY   61  50  67 SW16G24   29.76F
CUMBERLAND*    PTSUNNY   59  46  63 S5        29.77F

$$

VAZ025>031-261700-
SHENANDOAH VALLEY

CITY           SKY/WX    TMP DP  RH WIND       PRES   REMARKS
WINCHESTER*    MOSUNNY   70  50  49 S9        29.75F
FRONT ROYAL*   FAIR      70  55  60 S3        29.75F
LURAY*         FAIR      73  57  56 S18G25    29.77F
NEW MARKET*    FAIR      71  55  58 S15G22    29.75F
STAUNTON*      MOSUNNY   71  54  55 SW20      29.81F
WAYNESBORO*    FAIR      70  51  51 SW14      29.80F

$$

WVZ021-048>050-054>055-261700-
EASTERN WEST VIRGINIA PANHANDLE

CITY           SKY/WX    TMP DP  RH WIND       PRES   REMARKS
MARTINSBURG    MOSUNNY   61  45  55 VRB5      29.77F
PETERSBURG*    PTSUNNY   73  44  35 SW9       29.74F

$$

VAZ036>039-050-261700-
CENTRAL FOOTHILLS

CITY           SKY/WX    TMP DP  RH WIND       PRES   REMARKS
CHARLOTTESVILL MOSUNNY   63  57  81 S15       29.82F
CULPEPER*      MOSUNNY   66  59  77 S12       29.82F
ORANGE*        CLOUDY    61  57  88 S15G21    29.85F
GORDONSVILLE*  CLOUDY    58  55  91 S9G16     29.83F
WARRENTON*     CLOUDY    65  64  97 S9        29.82F

$$

VAZ055>057-261700-
NORTH AND CENTRAL PIEDMONT

CITY           SKY/WX    TMP DP  RH WIND       PRES   REMARKS
FREDERICKSBRG* CLOUDY    57  57 100 SW7       29.86F
STAFFORD*      CLOUDY    56  32  40 SW7       29.90F HAZE

$$

NCZ024-NYZ072-PAZ021-071-VAZ022-071-261700-
OTHER REGIONAL OBSERVATIONS

CITY           SKY/WX    TMP DP  RH WIND       PRES   REMARKS
NEW YORK CITY  LGT RAIN  49  45  86 CALM      29.88F FOG
PHILADELPHIA   CLOUDY    54  51  90 CALM      29.87F FOG
PITTSBURGH     LGT RAIN  44  42  93 N9        29.76F FOG
ROANOKE        MOSUNNY   65  53  65 SE9       29.85F
RICHMOND       CLOUDY    69  62  78 S16G24    29.87F
RALEIGH        CLOUDY    68  59  73 SW14      29.93F

$$

ANZ530>537-261700-
MARINE OBSERVATIONS

STATION/POSITION TIME  TEMP    WIND        PRES
                       AIR SEA DIR/SP/G
                 (UTC) (F)     (DEG/KT/KT) (MB)
THOMAS PT LIGHT  1600                        N/A
BALT KEY BRIDGE  1500   48      80/  6/  7 1011.8F
COVE POINT       1500   51     190/ 13/ 14 1012.1F
LEWISETTA        1500   64 47              1011.9F
SOLOMONS ISLAND  1500      41                N/A
PINEY POINT      1500          140/  7/  8   N/A

$$



USA.gov is the U.S. government's official web portal to all federal, state and local government web resources and services.